STARLINK-34054 (64141 NORAD) Tracking and Keplerian Element Data

This shows tracking and keplerian element data for the satellite.

Feedback or suggestion? Click here.




ElementValue
Catalog64141
NameSTARLINK-34054
Epoch Orbit3330
Epoch Day354.17582596
Epoch Year2025
RAAN166.844
Inclination42.9961
Eccentricity9.39E-05
Argument of Perigee287.1643
Mean Anonmoly72.9105
Mean Motion15.27580916
Decay Rate0.00018626
L11 64141U 25111U 25354.17582596 .00018626 00000+0 68465-3 0 9992
L22 64141 42.9961 166.8440 0000939 287.1643 72.9105 15.27580916 33307



Live tracking and technical data element details for STARLINK-34054 (NORAD 64141). STARLINK-34054 can be tracked NOW for your location showing map with azimuth and elevation plus other details from your city location.







IsCatalogInMostPopularTable: catalog: 64141, numindb: 4
Update: records affected: 1



GetName: 64141 STARLINK-34054

Hit Count: updated at: Sun, 08 Feb 2026 07:39:47 GMT